[Iaude] MPEC U203: 2023 UE6 [a=2.32,e=0.57,i=2.5,H=27.6]

mpec at marsden.cfa.harvard.edu mpec at marsden.cfa.harvard.edu
Sun Oct 22 17:15:07 EDT 2023


M.P.E.C. 2023-U203                             Issued 2023 October 22, 21:13 UT

     The Minor Planet Electronic Circulars contain information on unusual
         minor planets, routine data on comets and natural satellites,
         and occasional editorial announcements.  They are published
    on behalf of Division F of the International Astronomical Union by the
          Minor Planet Center, Smithsonian Astrophysical Observatory,
                          Cambridge, MA 02138, U.S.A.
			  
             Prepared using the Tamkin Foundation Computer Network

                              MPC at CFA.HARVARD.EDU
            URL https://www.minorplanetcenter.net/    ISSN 1523-6714

                                    2023 UE6                                    


Observations:
     K23U06E*KC2023 10 21.81299 01 51 01.31 +30 23 16.3          19.5 GXEU203L51
     K23U06E KC2023 10 21.81403 01 51 05.30 +30 23 49.6          19.4 GXEU203L51
     K23U06E KC2023 10 21.81508 01 51 09.24 +30 24 22.9          19.4 GXEU203L51
     K23U06E KC2023 10 21.88621 01 55 37.61 +31 01 27.8          19.4 GXEU203L51
     K23U06E KC2023 10 21.88723 01 55 41.46 +31 01 58.9          18.8 GXEU203L51
     K23U06E KC2023 10 21.88824 01 55 45.27 +31 02 29.8          19.2 GXEU203L51
     K23U06E KC2023 10 22.11988 02 11 36.79 +32 53 48.6          19.6 VqEU203734
     K23U06E KC2023 10 22.12476 02 11 55.63 +32 56 09.2          19.8 VqEU203734
     K23U06E KC2023 10 22.12956 02 12 14.15 +32 58 27.2          19.6 VqEU203734
     K23U06E KC2023 10 22.13302602 12 23.79 +33 00 27.4          19.9 VuEU203H21
     K23U06E KC2023 10 22.13460802 12 29.87 +33 01 12.5          19.7 VuEU203H21
     K23U06E KC2023 10 22.13619102 12 35.93 +33 01 57.5          19.7 VuEU203H21
     K23U06E KC2023 10 22.13777302 12 41.99 +33 02 42.2          19.5 VuEU203H21
     K23U06E KC2023 10 22.13935402 12 48.04 +33 03 26.9          19.8 VuEU203H21
     K23U06E KC2023 10 22.20453102 17 11.170+33 33 49.46         19.37GVEU203I52
     K23U06E KC2023 10 22.20504102 17 13.088+33 34 03.65         19.18GVEU203I52
     K23U06E KC2023 10 22.20555302 17 15.061+33 34 17.54         19.46GVEU203I52
     K23U06E KC2023 10 22.20607202 17 17.027+33 34 31.98         19.04GVEU203I52
     K23U06E KC2023 10 22.82120902 57 48.617+37 20 41.42         19.6 GVEU203J95
     K23U06E KC2023 10 22.82517202 58 03.816+37 21 59.54         19.4 GVEU203J95
     K23U06E KC2023 10 22.83047802 58 24.038+37 23 44.56         19.6 GVEU203J95
     K23U06E KC2023 10 22.84490 02 59 10.71 +37 31 10.3          19.6 GXEU203L51
     K23U06E KC2023 10 22.84661 02 59 17.07 +37 31 43.5          19.1 GXEU203L51
     K23U06E KC2023 10 22.84833 02 59 23.31 +37 32 15.9          19.0 GXEU203L51

Observer details:
734 Farpoint Observatory, Eskridge.  Observers D. Cromer, G. Hug, D. Goodin,
    R. Valentine.  Measurer D. Cromer.  0.69-m f/3.54 reflector + CCD.
H21 Astronomical Research Observatory, Westfield.  Observer R. Holmes.
    Measurers T. Linder, R. Holmes, L. Horn.  0.76-m f/3.0 astrograph + CCD.
I52 Steward Observatory, Mt. Lemmon Station.  Observer J. B. Fazekas.
    Measurers E. C. Beshore, D. Fay, J. B. Fazekas, D. C. Fuls, A. R. Gibbs,
    A. D. Grauer, H. Groeller, J. K. Hogan, R. A. Kowalski, S. M. Larson, G.
    J. Leonard, D. Rankin, R. L. Seaman, F. C. Shelly, K. W. Wierzchos.  1.0-m
    prime focus + CCD.
J95 Great Shefford.  Observer P. Birtwhistle.  0.41-m f/6.3 Schmidt-Cassegrain
    + CCD.
L51 MARGO, Nauchnyi.  Observer G. Borisov.  0.50-m f/1.9 reflector + CCD.

Orbital elements:
2023 UE6                                                 Earth MOID = 0.0137 AU
Epoch 2023 Sept. 13.0 TT = JDT 2460200.5                Veres                   
M 348.72272              (2000.0)            P               Q                  
n   0.27870016     Peri.    7.69375     +0.86657320     -0.49878027             
a   2.3211929      Node    22.24889     +0.45553112     +0.77715173             
e   0.5653994      Incl.    2.48328     +0.20381927     +0.38373615             
P   3.54           H   27.63          G   0.15           U   8                  
Residuals in seconds of arc
231021 L51  1.0-  0.1+    231022 734  0.3-  0.2+    231022 I52  0.0   0.3-
231021 L51  0.3-  0.2+    231022 H21  0.0   0.4+    231022 I52  0.1-  0.2-
231021 L51  0.7-  0.1-    231022 H21  0.2+  0.4+    231022 J95  0.3-  0.3+
231021 L51  0.5-  0.3-    231022 H21  0.0   0.4+    231022 J95  0.3+  0.1-
231021 L51  0.4-  0.4-    231022 H21  0.0   0.2+    231022 J95  0.0   0.0
231021 L51  0.4-  0.4-    231022 H21  0.1-  0.0     231022 L51  0.1+  0.5-
231022 734  0.6+  0.2+    231022 I52  0.1+  0.1-    231022 L51  0.8+  0.0
231022 734  0.0   0.2+    231022 I52  0.2-  0.0     231022 L51  0.3-  0.5-

Ephemeris:
2023 UE6                 a,e,i = 2.32, 0.57, 2                   q = 1.0088
Date    TT    R. A. (2000) Decl.     Delta      r    Elong.  Phase     V
2023 09 22    20 55 18.9 -28 25 34   0.1226  1.0854   129.1    45.9    25.0
...
2023 10 07    21 10 09.8 -25 26 58   0.06129 1.0307   118.9    58.2    23.7
...
2023 10 15    21 58 19.6 -16 22 35   0.02957 1.0146   124.9    53.8    22.0
...
2023 10 21    00 59 14.8 +22 32 52   0.01403 1.0092   164.4    15.4    19.2
2023 10 22    02 03 03.9 +31 59 46   0.01448 1.0089   158.3    21.4    19.5
2023 10 23    03 08 39.6 +38 17 33   0.01608 1.0087   147.4    32.1    20.0
...
2023 10 29    06 26 12.2 +40 55 36   0.03611 1.0111   118.3    59.9    22.6
...
2023 11 06    07 17 42.8 +37 41 33   0.06817 1.0233   116.1    60.5    24.0
...
2023 11 21    07 31 29.1 +35 34 25   0.1288  1.0718   127.8    46.8    25.1

M. P. C. Staff               (C) Copyright 2023 MPC           M.P.E.C. 2023-U203





More information about the Iaude mailing list